EW3012 Weather Reports


Display with metric or nautical units.
time (UTC)temp
F
wind
direction
speed
MPH
gust
MPH
rain 1hr
in
rain 24hr
in
rain mn
in
humidity
%
barometer
mb
20260507095230 71 137 4.0 11.0 0.00 0.00 0.00 47 1015.8
20260507094726 71 59 2.0 10.0 0.00 0.00 0.00 49 1015.8
20260507094223 72 49 1.0 10.0 0.00 0.00 0.00 48 1015.8
20260507094158 72 142 3.0 10.0 0.00 0.00 0.00 50 1015.8
20260507093225 71 138 4.0 10.0 0.00 0.00 0.00 48 1015.9
20260507092726 72 107 1.0 11.0 0.00 0.00 0.00 47 1015.9
20260507092227 72 109 4.0 11.0 0.00 0.00 0.00 47 1015.9
20260507092153 72 102 2.0 10.0 0.00 0.00 0.00 50 1015.9
20260507091225 72 141 0.0 6.0 0.00 0.00 0.00 49 1015.9
20260507090723 72 124 0.0 6.0 0.00 0.00 0.00 46 1015.7
20260507090220 72 265 1.0 5.0 0.00 0.00 0.00 46 1015.9
20260507085721 71 121 1.0 6.0 0.00 0.00 0.00 47 1015.8
20260507085219 72 114 1.0 6.0 0.00 0.00 0.00 44 1015.8
20260507084718 72 128 2.0 6.0 0.00 0.00 0.00 46 1015.9
20260507084220 72 172 1.0 9.0 0.00 0.00 0.00 49 1015.9
20260507083720 72 133 3.0 9.0 0.00 0.00 0.00 48 1015.9
20260507083216 72 145 3.0 7.0 0.00 0.00 0.00 44 1015.9
20260507083136 72 155 1.0 6.0 0.00 0.00 0.00 47 1015.9
20260507082217 72 140 2.0 6.0 0.00 0.00 0.00 45 1015.8
20260507081714 72 135 0.0 0.0 0.00 0.00 0.00 45 1015.9
20260507081637 71 130 0.0 1.0 0.00 0.00 0.00 48 1015.8
20260507080713 70 124 0.0 3.0 0.00 0.00 0.00 46 1015.7
20260507080214 69 155 0.0 6.0 0.00 0.00 0.00 47 1015.8
20260507075713 69 68 4.0 6.0 0.00 0.00 0.00 46 1015.6
20260507075639 69 137 2.0 5.0 0.00 0.00 0.00 48 1015.7
20260507074711 69 92 2.0 5.0 0.00 0.00 0.00 46 1015.8
20260507074214 69 157 0.0 0.0 0.00 0.00 0.00 48 1015.9
20260507073710 69 123 0.0 0.0 0.00 0.00 0.00 46 1015.9
20260507073633 69 63 0.0 0.0 0.00 0.00 0.00 43 1015.9
20260507073147 70 131 0.0 0.0 0.00 0.00 0.00 43 1015.9
20260507072212 69 182 0.0 0.0 0.00 0.00 0.00 43 1015.9
20260507071707 70 209 0.0 0.0 0.00 0.00 0.00 44 1015.9
20260507071205 70 82 0.0 0.0 0.00 0.00 0.00 43 1015.8
20260507071102 68 151 0.0 0.0 0.00 0.00 0.00 47 1015.9
20260507070856 70 228 0.0 0.0 0.00 0.00 0.00 44 1015.8
20260507065704 68 255 0.0 0.0 0.00 0.00 0.00 55 1015.9
20260507065204 67 106 0.0 0.0 0.00 0.00 0.00 58 1015.9
20260507064702 67 158 0.0 0.0 0.00 0.00 0.00 55 1015.9
20260507064623 67 144 0.0 0.0 0.00 0.00 0.00 59 1015.8
20260507063703 67 145 0.0 0.0 0.00 0.00 0.00 62 1015.9
20260507063204 67 78 0.0 0.0 0.00 0.00 0.00 66 1015.8
20260507062703 67 336 0.0 0.0 0.00 0.00 0.00 68 1015.9
20260507062203 67 279 0.0 0.0 0.00 0.00 0.00 68 1015.8
20260507061702 66 261 0.0 0.0 0.00 0.00 0.00 72 1015.8
20260507061633 65 264 0.0 0.0 0.00 0.00 0.00 72 1015.8
20260507060703 63 264 0.0 0.0 0.00 0.00 0.00 74 1015.9
20260507060202 62 264 0.0 0.0 0.00 0.00 0.00 77 1016.0
20260507055704 61 264 0.0 0.0 0.00 0.00 0.00 78 1016.0
20260507055201 60 264 0.0 0.0 0.00 0.00 0.00 77 1016.0
20260507054703 61 264 0.0 0.0 0.00 0.00 0.00 79 1015.9
20260507054202 60 261 0.0 0.0 0.00 0.00 0.00 80 1016.0
20260507054132 60 262 0.0 0.0 0.00 0.00 0.00 81 1015.9
20260507053201 58 261 0.0 0.0 0.00 0.00 0.00 83 1015.9
20260507052700 57 262 0.0 0.0 0.00 0.00 0.00 85 1015.9
20260507052201 56 274 0.0 0.0 0.00 0.00 0.00 87 1016.0
20260507051700 55 275 0.0 0.0 0.00 0.00 0.00 87 1016.0
20260507051204 53 275 0.0 0.0 0.00 0.00 0.00 88 1016.0
20260507051126 51 274 0.0 0.0 0.00 0.00 0.00 87 1016.0
20260507050200 50 268 0.0 0.0 0.00 0.00 0.00 87 1016.1
20260507045701 50 268 0.0 0.0 0.00 0.00 0.00 86 1016.1
20260507045158 49 266 0.0 0.0 0.00 0.00 0.00 86 1016.1
20260507044657 48 268 0.0 0.0 0.00 0.00 0.00 85 1016.2
20260507044616 47 266 0.0 0.0 0.00 0.00 0.00 85 1016.2
20260507043656 47 266 0.0 0.0 0.00 0.00 0.00 84 1016.2
20260507043154 46 269 0.0 0.0 0.00 0.00 0.00 84 1016.2
20260507043125 46 274 0.0 0.0 0.00 0.00 0.00 84 1016.2
20260507042155 45 252 0.0 0.0 0.00 0.00 0.00 84 1016.1
20260507041653 45 252 0.0 0.0 0.00 0.00 0.00 83 1016.1
20260507041151 45 283 0.0 3.0 0.00 0.00 0.00 83 1016.0
20260507041007 44 282 0.0 1.0 0.00 0.00 0.00 83 1016.1
20260507040821 45 282 0.0 4.0 0.00 0.00 0.00 83 1016.1
20260507040334 44 266 1.0 4.0 0.00 0.00 0.00 83 1016.1
20260507035144 44 283 0.0 2.0 0.00 0.00 0.00 83 1016.0
20260507034643 44 252 0.0 5.0 0.00 0.01 0.00 83 1016.1
20260507034143 44 271 1.0 5.0 0.00 0.01 0.00 82 1016.0
20260507033643 44 221 0.0 3.0 0.00 0.01 0.00 82 1016.0
20260507033141 43 293 1.0 3.0 0.00 0.01 0.00 83 1016.1
20260507032641 43 243 0.0 6.0 0.00 0.01 0.00 83 1016.1
20260507032139 44 250 2.0 6.0 0.00 0.01 0.00 82 1015.9
20260507031641 43 276 2.0 5.0 0.00 0.01 0.00 82 1016.0
20260507031151 43 261 2.0 4.0 0.00 0.01 0.00 82 1015.9
20260507030639 43 238 0.0 3.0 0.00 0.01 0.00 83 1016.0
20260507030139 43 252 2.0 6.0 0.00 0.01 0.00 82 1015.9
20260507025640 43 257 3.0 6.0 0.00 0.01 0.00 82 1015.9
20260507025139 42 226 2.0 5.0 0.00 0.01 0.00 83 1016.0
20260507024637 42 321 0.0 2.0 0.00 0.01 0.00 83 1015.9
20260507024610 42 259 0.0 3.0 0.00 0.01 0.00 83 1015.9
20260507023652 42 259 0.0 4.0 0.00 0.01 0.00 82 1015.9
20260507023138 42 262 1.0 4.0 0.00 0.01 0.00 83 1016.0
20260507022639 42 258 0.0 0.0 0.00 0.01 0.00 83 1015.9
20260507022151 41 78 0.0 0.0 0.00 0.01 0.00 84 1016.0
20260507022006 42 78 0.0 0.0 0.00 0.01 0.00 84 1016.0
20260507021813 41 78 0.0 0.0 0.00 0.01 0.00 84 1015.9
20260507021329 42 78 0.0 0.0 0.00 0.01 0.00 84 1016.0
20260507020602 42 78 0.0 0.0 0.00 0.01 0.00 84 1016.0
20260507015637 42 78 0.0 0.0 0.00 0.01 0.00 84 1016.1
20260507015137 43 227 0.0 4.0 0.00 0.01 0.00 84 1016.1
20260507014652 43 226 0.0 4.0 0.00 0.01 0.00 83 1016.1
20260507014137 43 276 0.0 4.0 0.00 0.01 0.00 84 1016.2
20260507014100 44 241 1.0 5.0 0.00 0.01 0.00 83 1016.1
20260507013135 44 269 0.0 5.0 0.00 0.01 0.00 82 1016.2
20260507012636 44 272 0.0 4.0 0.00 0.01 0.00 83 1016.2
20260507012221 44 247 0.0 5.0 0.00 0.01 0.00 82 1016.2
20260507012155 43 251 1.0 4.0 0.00 0.01 0.00 83 1016.2
20260507011704 43 227 1.0 3.0 0.00 0.01 0.00 83 1016.2
20260507011138 44 247 0.0 4.0 0.00 0.01 0.00 83 1016.2
20260507010831 44 281 1.0 4.0 0.00 0.01 0.00 82 1016.2
20260507005636 44 268 1.0 5.0 0.00 0.01 0.00 82 1016.1
20260507005136 43 269 1.0 4.0 0.00 0.01 0.00 82 1016.1
20260507004635 42 266 0.0 0.0 0.00 0.01 0.00 84 1016.0
20260507004136 43 265 0.0 0.0 0.00 0.01 0.00 83 1016.0
20260507003634 43 266 0.0 0.0 0.00 0.01 0.00 84 1015.9
20260507003135 43 266 0.0 0.0 0.00 0.01 0.00 84 1016.0
20260507002636 43 266 0.0 0.0 0.00 0.01 0.00 84 1016.0
20260507002133 43 71 0.0 0.0 0.00 0.01 0.00 84 1016.0
20260507002056 43 71 0.0 0.0 0.00 0.01 0.00 84 1016.0
20260507001136 43 71 0.0 0.0 0.00 0.01 0.00 85 1016.0
20260507000632 43 71 0.0 0.0 0.00 0.01 0.00 85 1016.0
20260507000137 43 71 0.0 0.0 0.00 0.01 0.00 85 1016.1
20260506235633 44 71 0.0 0.0 0.00 0.01 0.00 85 1016.1
20260506235136 44 71 0.0 0.0 0.00 0.01 0.00 85 1016.1
20260506234632 44 71 0.0 0.0 0.00 0.01 0.00 85 1016.2
20260506234135 44 71 0.0 0.0 0.00 0.01 0.00 85 1016.2
20260506233632 45 71 0.0 0.0 0.00 0.01 0.00 85 1016.2
20260506233134 45 71 0.0 0.0 0.00 0.01 0.00 85 1016.2
20260506232632 46 71 0.0 0.0 0.00 0.01 0.00 84 1016.3
20260506232134 46 259 0.0 0.0 0.00 0.01 0.00 83 1016.2
20260506232039 45 285 0.0 0.0 0.00 0.01 0.00 84 1016.2
20260506231827 45 252 0.0 0.0 0.00 0.01 0.00 83 1016.3
20260506230632 45 283 0.0 0.0 0.00 0.01 0.00 85 1016.2
20260506230131 45 283 0.0 0.0 0.00 0.01 0.00 85 1016.3
20260506230048 45 283 0.0 0.0 0.00 0.01 0.00 85 1016.3
20260506225132 45 283 0.0 0.0 0.00 0.01 0.00 84 1016.4
20260506224630 46 283 0.0 0.0 0.00 0.01 0.00 84 1016.4
20260506224131 46 185 0.0 0.0 0.00 0.01 0.00 84 1016.4
20260506223630 45 281 0.0 0.0 0.00 0.01 0.00 85 1016.3
20260506223130 45 251 0.0 0.0 0.00 0.01 0.00 85 1016.3
20260506222630 45 251 0.0 0.0 0.00 0.01 0.00 85 1016.3
20260506222555 46 251 0.0 0.0 0.00 0.01 0.00 86 1016.2
20260506221631 46 251 0.0 0.0 0.00 0.01 0.00 86 1016.3
20260506221131 46 251 0.0 0.0 0.00 0.01 0.00 86 1016.3
20260506220631 46 251 0.0 0.0 0.00 0.01 0.00 86 1016.3
20260506220130 47 251 0.0 0.0 0.00 0.01 0.00 86 1016.3
20260506220050 47 251 0.0 0.0 0.00 0.01 0.00 86 1016.3
20260506215129 47 251 0.0 0.0 0.00 0.01 0.00 86 1016.3
20260506214631 47 252 0.0 0.0 0.00 0.01 0.00 86 1016.3
20260506214129 47 252 0.0 0.0 0.00 0.01 0.00 86 1016.3
20260506214052 47 252 0.0 0.0 0.00 0.01 0.00 87 1016.4
20260506213129 47 252 0.0 0.0 0.00 0.01 0.00 87 1016.2
20260506212630 47 252 0.0 0.0 0.00 0.01 0.00 87 1016.3
20260506212554 48 252 0.0 0.0 0.00 0.01 0.00 87 1016.2
20260506211630 48 252 0.0 0.0 0.00 0.01 0.00 87 1016.2
20260506211129 48 252 0.0 0.0 0.00 0.01 0.00 87 1016.2
20260506211100 48 276 0.0 0.0 0.00 0.01 0.00 87 1016.2
20260506210128 49 276 0.0 0.0 0.00 0.01 0.00 87 1016.2
20260506205628 49 276 0.0 0.0 0.00 0.01 0.01 87 1016.2
20260506205131 49 275 0.0 0.0 0.00 0.01 0.01 87 1016.2
20260506204629 49 275 0.0 0.0 0.00 0.01 0.01 87 1016.2
20260506204129 49 226 0.0 0.0 0.00 0.01 0.01 87 1016.2
20260506203628 49 192 0.0 0.0 0.00 0.01 0.01 87 1016.2
20260506203127 50 192 0.0 0.0 0.00 0.01 0.01 87 1016.2
20260506202628 50 190 0.0 0.0 0.00 0.01 0.01 87 1016.2
20260506202127 50 192 0.0 0.0 0.00 0.01 0.01 87 1016.1
20260506201628 50 286 0.0 0.0 0.00 0.01 0.01 87 1016.1
20260506201128 51 251 0.0 0.0 0.00 0.01 0.01 87 1016.1
20260506200630 51 251 0.0 0.0 0.00 0.01 0.01 87 1016.1
20260506200127 51 251 0.0 0.0 0.00 0.01 0.01 87 1016.1
20260506195627 51 251 0.0 0.0 0.00 0.01 0.01 87 1016.1
20260506195126 51 214 0.0 0.0 0.00 0.01 0.01 87 1016.1
20260506194627 51 214 0.0 0.0 0.00 0.01 0.01 87 1016.1
20260506194126 52 288 0.0 0.0 0.00 0.01 0.01 86 1016.0
20260506194058 52 140 0.0 0.0 0.00 0.01 0.01 86 1016.0
20260506193130 53 141 0.0 0.0 0.00 0.01 0.01 86 1016.0
20260506192626 53 141 0.0 0.0 0.00 0.01 0.01 85 1016.0
20260506192129 54 137 0.0 0.0 0.00 0.01 0.01 84 1016.0
20260506191625 55 261 0.0 0.0 0.00 0.01 0.01 84 1015.8
20260506191126 55 274 0.0 0.0 0.00 0.01 0.01 84 1015.9
20260506190626 55 274 0.0 0.0 0.00 0.01 0.01 84 1015.9
20260506190125 54 268 0.0 0.0 0.00 0.01 0.01 85 1015.7
20260506185627 54 197 0.0 0.0 0.00 0.01 0.01 85 1015.7
20260506185125 54 149 0.0 0.0 0.00 0.01 0.01 84 1015.5
20260506184626 54 148 0.0 0.0 0.00 0.01 0.01 84 1015.5
20260506184455 55 149 0.0 0.0 0.00 0.01 0.01 82 1015.4
20260506184306 54 149 0.0 0.0 0.00 0.01 0.01 83 1015.5
20260506183815 55 149 0.0 0.0 0.00 0.01 0.01 82 1015.4
20260506182625 56 149 0.0 0.0 0.00 0.01 0.01 81 1015.3
20260506182125 56 149 0.0 0.0 0.00 0.01 0.01 81 1015.3
20260506181624 56 102 0.0 0.0 0.00 0.01 0.01 80 1015.1
20260506181125 57 102 0.0 0.0 0.00 0.01 0.01 78 1015.0
20260506180626 58 102 0.0 0.0 0.00 0.01 0.01 76 1014.9
20260506180127 58 102 0.0 0.0 0.00 0.01 0.01 75 1014.8
20260506175624 58 102 0.0 0.0 0.00 0.01 0.01 74 1014.8
20260506175127 59 102 0.0 0.0 0.00 0.01 0.01 74 1014.5
20260506174624 60 102 0.0 0.0 0.00 0.01 0.01 72 1014.5
20260506174123 60 102 0.0 0.0 0.00 0.01 0.01 71 1014.4
20260506174042 61 102 0.0 0.0 0.00 0.01 0.01 68 1014.4
20260506173124 62 102 0.0 0.0 0.00 0.01 0.01 68 1014.3
20260506172625 62 102 0.0 0.0 0.00 0.01 0.01 67 1014.3
20260506172123 63 102 0.0 0.0 0.00 0.01 0.01 66 1014.3
20260506171626 64 102 0.0 0.0 0.00 0.01 0.01 65 1014.2
20260506171123 64 102 0.0 0.0 0.00 0.01 0.01 64 1014.2
20260506171017 66 102 0.0 0.0 0.00 0.01 0.01 62 1014.1
20260506170819 65 102 0.0 0.0 0.00 0.01 0.01 63 1014.2
20260506170038 67 102 0.0 0.0 0.00 0.01 0.01 61 1014.0
20260506165124 67 102 0.0 0.0 0.00 0.01 0.01 60 1014.1
20260506164622 68 111 0.0 0.0 0.00 0.01 0.01 61 1014.0
20260506164122 68 124 0.0 0.0 0.00 0.01 0.01 58 1013.9
20260506164021 70 134 0.0 3.0 0.00 0.01 0.01 58 1013.9
20260506163815 69 147 0.0 3.0 0.00 0.01 0.01 60 1013.9
20260506162623 70 164 0.0 4.0 0.00 0.01 0.01 58 1013.9
20260506162123 71 128 0.0 4.0 0.00 0.01 0.01 55 1013.7
20260506161622 71 131 0.0 0.0 0.00 0.01 0.01 55 1013.7
20260506161123 71 134 0.0 2.0 0.00 0.01 0.01 52 1013.7
20260506160622 72 123 0.0 2.0 0.00 0.01 0.01 52 1013.6
20260506160122 72 140 0.0 1.0 0.00 0.01 0.01 51 1013.6
20260506155624 72 224 0.0 5.0 0.00 0.01 0.01 51 1013.5
20260506155555 73 52 1.0 6.0 0.00 0.01 0.01 51 1013.5
20260506154623 73 224 0.0 6.0 0.00 0.01 0.01 51 1013.5
20260506154119 73 121 1.0 5.0 0.00 0.01 0.01 50 1013.7
20260506153618 73 94 0.0 5.0 0.00 0.01 0.01 50 1013.7
20260506153120 74 135 2.0 5.0 0.00 0.01 0.01 49 1013.8
20260506152618 74 158 0.0 3.0 0.00 0.01 0.01 50 1013.8
20260506152116 74 97 0.0 0.0 0.00 0.01 0.01 50 1013.8
20260506151615 74 107 0.0 4.0 0.00 0.01 0.01 49 1013.9
20260506151539 74 135 0.0 7.0 0.00 0.01 0.01 49 1013.9
20260506150614 74 158 1.0 7.0 0.00 0.01 0.01 50 1013.9
20260506150116 74 151 1.0 5.0 0.00 0.01 0.01 49 1013.9
20260506145615 74 157 0.0 5.0 0.00 0.01 0.01 50 1013.9
20260506145112 74 138 0.0 3.0 0.00 0.01 0.01 49 1014.0
20260506145037 75 107 0.0 0.0 0.00 0.01 0.01 47 1014.0
20260506144112 75 157 0.0 0.0 0.00 0.01 0.01 49 1014.0
20260506143613 75 142 0.0 0.0 0.00 0.01 0.01 48 1013.9
20260506143112 75 243 0.0 0.0 0.00 0.01 0.01 49 1014.0
20260506142611 75 138 0.0 0.0 0.00 0.01 0.01 49 1013.9
20260506142109 76 147 0.0 0.0 0.00 0.00 0.01 48 1013.9
20260506142034 76 234 0.0 3.0 0.00 0.00 0.01 50 1013.9
20260506141106 74 171 1.0 7.0 0.00 0.00 0.01 49 1013.9
20260506140605 74 161 0.0 7.0 0.00 0.00 0.01 48 1013.8
20260506140109 75 125 2.0 7.0 0.00 0.00 0.01 49 1013.9
20260506135602 75 149 0.0 5.0 0.00 0.00 0.01 48 1013.9
20260506135058 74 189 0.0 7.0 0.00 0.00 0.01 49 1014.0
20260506134558 74 148 0.0 7.0 0.00 0.00 0.01 49 1014.0
20260506134059 74 231 1.0 6.0 0.00 0.00 0.01 50 1014.0
20260506133556 74 124 3.0 6.0 0.00 0.00 0.01 48 1014.1
20260506133059 74 109 1.0 6.0 0.00 0.00 0.01 49 1014.1
20260506132558 74 137 0.0 4.0 0.00 0.00 0.01 50 1014.1
20260506132452 74 179 0.0 9.0 0.00 0.00 0.01 49 1014.1
20260506132246 74 175 1.0 9.0 0.00 0.00 0.01 47 1014.1
20260506131054 74 179 1.0 6.0 0.00 0.00 0.01 50 1014.1
20260506130553 74 185 0.0 5.0 0.00 0.00 0.01 49 1014.1
20260506130054 73 151 1.0 5.0 0.00 0.00 0.01 49 1014.2
20260506125543 73 125 0.0 0.0 0.00 0.00 0.01 51 1014.2
20260506125049 73 140 0.0 1.0 0.00 0.00 0.01 50 1014.2
20260506124543 72 147 0.0 1.0 0.00 0.00 0.01 54 1014.3
20260506124040 72 54 0.0 0.0 0.00 0.00 0.01 53 1014.3
20260506123539 72 149 0.0 2.0 0.00 0.00 0.01 51 1014.3
20260506123040 73 137 0.0 3.0 0.00 0.00 0.01 50 1014.3
20260506122539 73 142 0.0 3.0 0.00 0.00 0.01 52 1014.3
20260506122041 73 120 0.0 4.0 0.00 0.00 0.01 53 1014.4
20260506121540 73 148 1.0 5.0 0.00 0.00 0.01 50 1014.4
20260506121037 74 179 0.0 6.0 0.00 0.00 0.01 48 1014.4
20260506120542 74 185 0.0 9.0 0.00 0.00 0.01 51 1014.4
20260506120501 74 144 3.0 9.0 0.00 0.00 0.01 49 1014.4
20260506115534 74 17 0.0 9.0 0.00 0.00 0.01 51 1014.4
20260506115033 74 142 2.0 9.0 0.00 0.00 0.01 53 1014.4
20260506114531 74 350 1.0 6.0 0.00 0.00 0.01 49 1014.4
20260506114034 74 94 2.0 6.0 0.00 0.00 0.01 50 1014.5
20260506113531 74 131 0.0 6.0 0.00 0.00 0.01 50 1014.5
20260506113032 74 148 1.0 9.0 0.00 0.00 0.01 51 1014.5
20260506112531 74 138 1.0 9.0 0.00 0.00 0.01 51 1014.5
20260506112029 75 116 2.0 5.0 0.00 0.00 0.01 49 1014.5
20260506111531 75 75 0.0 5.0 0.00 0.00 0.01 50 1014.5
20260506111029 75 102 1.0 9.0 0.00 0.00 0.01 48 1014.5
20260506110538 74 96 2.0 9.0 0.00 0.00 0.01 49 1014.5
20260506110030 74 117 0.0 9.0 0.00 0.00 0.01 49 1014.5
20260506105528 74 154 2.0 9.0 0.00 0.00 0.01 48 1014.5
20260506105029 75 155 1.0 6.0 0.00 0.00 0.01 47 1014.5
20260506104528 74 179 2.0 7.0 0.00 0.00 0.01 48 1014.7
20260506104026 74 65 2.0 7.0 0.00 0.00 0.01 49 1014.7
20260506103527 74 78 2.0 6.0 0.00 0.00 0.01 48 1014.5
20260506103025 74 223 1.0 6.0 0.00 0.00 0.01 48 1014.5
20260506102523 74 168 0.0 6.0 0.00 0.00 0.01 49 1014.5
20260506102017 73 176 0.0 10.0 0.00 0.00 0.01 52 1014.7
20260506101519 74 151 2.0 10.0 0.00 0.00 0.01 50 1014.7
20260506101016 73 155 0.0 9.0 0.00 0.00 0.01 52 1014.5
20260506100514 73 137 0.0 5.0 0.00 0.00 0.01 51 1014.7
20260506100018 73 271 0.0 6.0 0.00 0.00 0.01 51 1014.7